Location: Newark
(38.8667°N, 6.9667°W)
Time: 15:17:56
(UTC+00:00)

ISS - Pass Details

Date: 30 October 2019
Orbit: 412 x 421 km, 51.6° (Epoch: 17 November)

Event Time Altitude Azimuth Distance (km) Brightness Sun altitude
Exits shadow 06:16:44 - 310° (NW) 1,705 -1.2 -7.6°
Reaches altitude 10° 06:17:43 10° 324° (NW) 1,508 -1.4 -7.4°
Maximum altitude 06:19:03 12° 347° (NNW) 1,400 -1.3 -7.1°
Drops below altitude 10° 06:20:24 10° 10° (N) 1,508 -0.9 -6.9°
Sets 06:23:39 0° 44° (NE) 2,372 0.5 -6.2°
